GW5596 Weather Reports


time (UTC)temp
C
wind
direction
speed
KPH
gust
KPH
rain 1hr
cm
rain 24hr
cm
rain mn
cm
humidity
%
barometer
mb
20260906221557 27 301 1.6 9.7 0.00 0.00 0.00 35 1018.8
20260906220042 28 89 4.8 14.5 0.00 0.00 0.00 30 1019.1
20260906213049 29 79 8.0 17.7 0.00 0.00 0.00 32 1019.5
20260906211543 27 330 3.2 20.9 0.00 0.00 0.00 34 1019.5
20260906210047 28 350 6.4 19.3 0.00 0.00 0.00 32 1019.3
20260906204558 28 83 8.0 20.9 0.00 0.00 0.00 33 1019.8
20260906203043 29 47 6.4 25.7 0.00 0.00 0.00 32 1019.8
20260906201601 30 13 6.4 19.3 0.00 0.00 0.00 32 1019.9
20260906200043 30 197 6.4 24.1 0.00 0.00 0.00 31 1020.1
20260906194546 29 286 8.0 20.9 0.00 0.00 0.00 31 1020.0
20260906193042 28 6 8.0 22.5 0.00 0.00 0.00 31 1020.0
20260906191542 29 90 8.0 19.3 0.00 0.00 0.00 31 1020.3
20260906190044 29 108 6.4 20.9 0.00 0.00 0.00 25 1020.4
20260906184553 30 124 8.0 14.5 0.00 0.00 0.00 24 1020.7
20260906183042 30 105 6.4 16.1 0.00 0.00 0.00 28 1020.8
20260906181544 29 88 3.2 12.9 0.00 0.00 0.00 27 1021.4
20260906180059 29 71 3.2 9.7 0.00 0.00 0.00 30 1021.9
20260906174551 28 91 3.2 11.3 0.00 0.00 0.00 31 1022.2
20260906173045 27 72 6.4 14.5 0.00 0.00 0.00 33 1022.5
20260906171548 27 311 3.2 9.7 0.00 0.00 0.00 35 1022.8
20260906170054 26 0 0.0 6.4 0.00 0.00 0.00 37 1023.0
20260906164543 26 52 3.2 6.4 0.00 0.00 0.00 36 1023.2
20260906163046 24 97 3.2 4.8 0.00 0.00 0.00 37 1023.2
20260906161542 24 0 0.0 4.8 0.00 0.00 0.00 40 1023.2
20260906160042 23 0 0.0 3.2 0.00 0.00 0.00 41 1023.4
20260906154543 22 0 0.0 4.8 0.00 0.00 0.00 45 1023.5
20260906153043 22 0 0.0 1.6 0.00 0.00 0.00 45 1023.7
20260906151542 20 0 0.0 0.0 0.00 0.00 0.00 49 1023.7
20260906150040 20 0 0.0 0.0 0.00 0.00 0.00 51 1023.9
20260906144548 18 0 0.0 0.0 0.00 0.00 0.00 55 1023.9
20260906143043 17 0 0.0 0.0 0.00 0.00 0.00 58 1023.9
20260906141542 15 0 0.0 0.0 0.00 0.00 0.00 68 1024.0
20260906140041 13 0 0.0 0.0 0.00 0.00 0.00 74 1024.0
20260906134544 10 0 0.0 0.0 0.00 0.00 0.00 82 1024.0
20260906133046 8 0 0.0 0.0 0.00 0.00 0.00 86 1024.0
20260906131545 8 0 0.0 0.0 0.00 0.00 0.00 86 1023.9
20260906130043 7 0 0.0 0.0 0.00 0.00 0.00 88 1023.7
20260906124557 7 0 0.0 0.0 0.00 0.00 0.00 89 1023.6
20260906123045 7 0 0.0 0.0 0.00 0.00 0.00 89 1023.6
20260906121545 7 0 0.0 0.0 0.00 0.00 0.00 88 1023.6
20260906120109 7 0 0.0 0.0 0.00 0.00 0.00 87 1023.9
20260906114544 8 0 0.0 0.0 0.00 0.00 0.00 86 1023.8
20260906113048 8 0 0.0 0.0 0.00 0.00 0.00 85 1023.6
20260906111554 9 0 0.0 0.0 0.00 0.00 0.00 84 1023.5
20260906110045 9 0 0.0 0.0 0.00 0.00 0.00 84 1023.4
20260906104545 8 0 0.0 0.0 0.00 0.00 0.00 86 1023.4
20260906103045 9 0 0.0 0.0 0.00 0.00 0.00 85 1023.3
20260906101542 9 0 0.0 0.0 0.00 0.00 0.00 85 1023.3
20260906100050 10 0 0.0 0.0 0.00 0.00 0.00 84 1023.2
20260906094544 10 0 0.0 0.0 0.00 0.00 0.00 83 1023.3
20260906093042 10 0 0.0 0.0 0.00 0.00 0.00 83 1023.3
20260906091540 10 0 0.0 0.0 0.00 0.00 0.00 83 1023.3
20260906090054 10 0 0.0 0.0 0.00 0.00 0.00 82 1023.2
20260906084549 11 0 0.0 0.0 0.00 0.00 0.00 81 1023.3
20260906083042 11 0 0.0 0.0 0.00 0.00 0.00 81 1023.2
20260906081546 11 0 0.0 0.0 0.00 0.00 0.00 80 1023.2
20260906080044 11 0 0.0 0.0 0.00 0.00 0.00 79 1023.4
20260906074544 11 0 0.0 0.0 0.00 0.00 0.00 78 1023.4
20260906073043 11 0 0.0 0.0 0.00 0.00 0.00 78 1023.5
20260906071557 12 0 0.0 0.0 0.00 0.00 0.00 75 1023.6
20260906070042 12 0 0.0 0.0 0.00 0.00 0.00 74 1023.5
20260906064539 13 0 0.0 0.0 0.00 0.00 0.00 71 1023.5
20260906063053 14 0 0.0 0.0 0.00 0.00 0.00 67 1023.5
20260906061544 16 0 0.0 0.0 0.00 0.00 0.00 63 1023.6
20260906060042 16 0 0.0 0.0 0.00 0.00 0.00 62 1023.5
20260906054546 17 0 0.0 0.0 0.00 0.00 0.00 60 1023.7
20260906053050 17 0 0.0 1.6 0.00 0.00 0.00 57 1023.9
20260906051543 18 101 1.6 8.0 0.00 0.00 0.00 54 1023.9
20260906050044 18 0 0.0 4.8 0.00 0.00 0.00 52 1023.7
20260906044546 19 0 0.0 1.6 0.00 0.00 0.00 49 1023.9
20260906043043 20 0 0.0 8.0 0.00 0.00 0.00 49 1023.9
20260906041542 18 0 0.0 9.7 0.00 0.00 0.00 50 1023.9
20260906040047 17 293 0.0 4.8 0.00 0.00 0.00 50 1023.7
20260906034547 16 131 3.2 4.8 0.00 0.00 0.00 52 1023.0
20260906033044 16 0 0.0 0.0 0.00 0.00 0.00 54 1022.6
20260906031542 17 0 0.0 0.0 0.00 0.00 0.00 51 1022.3
20260906030046 17 282 0.0 4.8 0.00 0.00 0.00 52 1022.4
20260906024558 17 0 0.0 0.0 0.00 0.00 0.00 50 1021.9
20260906023044 18 0 0.0 0.0 0.00 0.00 0.00 48 1021.8
20260906021544 17 0 0.0 0.0 0.00 0.00 0.00 49 1021.8
20260906020050 19 0 0.0 0.0 0.00 0.00 0.00 45 1021.7
20260906014552 20 0 0.0 0.0 0.00 0.00 0.00 43 1021.5
20260906013047 22 0 0.0 0.0 0.00 0.00 0.00 38 1021.4
20260906011545 23 0 0.0 4.8 0.00 0.00 0.00 34 1021.3
20260906010043 25 0 3.2 12.9 0.00 0.00 0.00 32 1021.3
20260906004544 26 114 3.2 8.0 0.00 0.00 0.00 30 1021.2
20260906003102 26 99 6.4 12.9 0.00 0.00 0.00 29 1021.1
20260906001545 26 117 6.4 22.5 0.00 0.00 0.00 29 1021.0
20260906000043 27 123 8.0 12.9 0.00 0.00 0.00 28 1020.9
20260905234541 27 124 1.6 14.5 0.00 0.00 0.00 26 1020.8
20260905233043 27 109 4.8 11.3 0.00 0.00 0.00 26 1020.8
20260905231544 27 63 4.8 16.1 0.00 0.00 0.00 27 1020.8
20260905230042 27 82 4.8 14.5 0.00 0.00 0.00 26 1020.8
20260905224542 29 105 4.8 8.0 0.00 0.00 0.00 24 1020.6